Date String (YYYY-MM-DD hh:mm:ss) UTC,Instrument flags,absolute air pressure of the measurement (hPa),sample flow rate (lpm),inlet stack bypass flow (lpm),air temperature of the measurement (°C),ambient temperature measured by the external sensor (°C),aerosol sample conditioner tube jacket temperature (°C),OPC LED temperature (°C),internal box temperature (°C),relative humidity of the measurement (%),span deviation,mass concentration of particles derived from Lorenz-Mie calculation of OPC scattering (μg/m³),mass concentration of particles derived from Lorenz-Mie calculation of OPC scattering (μg/m³),mass concentration of particles derived from Lorenz-Mie calculation of OPC scattering (μg/m³)
DateTimeUTC,F1_M11,P_M11,Q1_M11,Q2_M11,T1_M11,T2_M11,T3_M11,T4_M11,T5_M11,U1_M11,ZSPAN_M11,X0_M11,X2_M11,X1_M11
2024-06-07 08:00:00,SystemResetWarning,0828.6,5.00,000.00,030.4,029.9,000.0,038.5,032.2,019.8,0000.0,0017.48,0004.35,0002.90
2024-06-07 08:01:00,SystemResetWarning,0828.5,5.01,000.00,030.5,030.0,000.0,038.5,032.2,019.7,0000.0,0018.42,0004.30,0002.87
2024-06-07 08:02:00,SystemResetWarning,0828.6,5.00,000.00,030.5,030.0,000.0,038.6,032.2,019.7,0000.0,0019.57,0004.33,0002.87
2024-06-07 08:03:00,SystemResetWarning,0828.6,5.00,000.00,030.5,030.0,000.0,038.6,032.3,019.7,0000.0,0019.56,0004.30,0002.87
2024-06-07 08:04:00,SystemResetWarning,0828.6,4.99,000.00,030.6,030.1,000.0,038.6,032.3,019.6,0000.0,0019.13,0004.30,0002.85
2024-06-07 08:05:00,SystemResetWarning,0828.6,5.00,000.00,030.6,030.1,000.0,038.7,032.3,019.6,0000.0,0021.22,0004.27,0002.87
2024-06-07 08:06:00,SystemResetWarning,0828.5,5.00,000.00,030.6,030.1,000.0,038.7,032.3,019.5,0000.0,0021.84,0004.27,0002.89
2024-06-07 08:07:00,SystemResetWarning,0828.5,5.00,000.00,030.7,030.1,000.0,038.7,032.3,019.4,0000.0,0021.22,0004.29,0002.91
2024-06-07 08:08:00,SystemResetWarning,0828.6,4.99,000.00,030.7,030.0,000.0,038.8,032.3,019.4,0000.0,0020.60,0004.30,0002.90
2024-06-07 08:09:00,SystemResetWarning,0828.4,4.99,000.00,030.4,027.8,000.0,038.8,031.3,019.6,0000.0,0020.07,0004.29,0002.90
2024-06-07 08:10:00,SystemResetWarning,0828.4,5.02,000.00,030.0,026.5,000.0,038.8,030.5,020.1,0000.0,0019.59,0004.30,0002.92
2024-06-07 08:11:00,SystemResetWarning,0828.4,4.99,000.00,029.8,026.7,000.0,038.8,030.5,020.3,0000.0,0018.92,0004.34,0002.93
2024-06-07 08:12:00,SystemResetWarning,0828.4,5.00,000.00,029.7,027.1,000.0,038.6,030.8,020.4,0000.0,0017.50,0004.36,0002.98
2024-06-07 08:13:00,SystemResetWarning,0828.4,5.00,000.00,029.7,027.5,000.0,038.5,031.0,020.4,0000.0,0016.42,0004.35,0003.02
2024-06-07 08:14:00,SystemResetWarning,0828.4,5.00,000.00,029.7,027.9,000.0,038.4,031.2,020.4,0000.0,0015.74,0004.32,0003.03
2024-06-07 08:15:00,SystemResetWarning,0828.4,5.00,000.00,029.7,028.2,000.0,038.3,031.3,020.4,0000.0,0016.29,0004.32,0003.06
2024-06-07 08:16:00,SystemResetWarning,0828.4,5.00,000.00,029.8,028.5,000.0,038.3,031.4,020.3,0000.0,0015.30,0004.36,0003.07
2024-06-07 08:17:00,SystemResetWarning,0828.4,5.00,000.00,029.8,028.7,000.0,038.3,031.4,020.1,0000.0,0015.48,0004.37,0003.09
2024-06-07 08:18:00,SystemResetWarning,0828.4,4.99,000.00,029.9,028.8,000.0,038.3,031.5,020.1,0000.0,0015.94,0004.35,0003.07
2024-06-07 08:19:00,SystemResetWarning,0828.4,5.00,000.00,029.9,029.0,000.0,038.3,031.6,020.1,0000.0,0017.36,0004.39,0003.06
2024-06-07 08:20:00,SystemResetWarning,0828.4,5.00,000.00,029.9,029.1,000.0,038.3,031.7,020.1,0000.0,0017.32,0004.41,0003.03
2024-06-07 08:21:00,SystemResetWarning,0828.4,4.99,000.00,030.0,029.2,000.0,038.3,031.7,020.0,0000.0,0017.47,0004.35,0003.00
2024-06-07 08:22:00,SystemResetWarning,0828.4,5.00,000.00,030.0,029.3,000.0,038.3,031.8,020.0,0000.0,0017.83,0004.29,0002.97
2024-06-07 08:23:00,SystemResetWarning,0828.4,5.00,000.00,030.1,029.4,000.0,038.3,031.8,019.9,0000.0,0017.88,0004.25,0002.94
2024-06-07 08:24:00,SystemResetWarning,0828.4,5.01,000.00,030.1,029.5,000.0,038.3,031.9,019.9,0000.0,0017.63,0004.25,0002.92
2024-06-07 08:25:00,SystemResetWarning,0828.4,5.00,000.00,030.2,029.5,000.0,038.3,031.9,019.9,0000.0,0018.19,0004.26,0002.93
2024-06-07 08:26:00,SystemResetWarning,0828.4,5.00,000.00,030.2,029.6,000.0,038.3,032.0,019.8,0000.0,0017.22,0004.24,0002.91
2024-06-07 08:27:00,SystemResetWarning,0828.4,5.00,000.00,030.2,029.7,000.0,038.4,032.0,019.8,0000.0,0016.39,0004.17,0002.87
2024-06-07 08:28:00,SystemResetWarning,0828.4,5.00,000.00,030.3,029.7,000.0,038.4,032.0,019.6,0000.0,0015.64,0004.14,0002.82
2024-06-07 08:29:00,SystemResetWarning,0828.4,5.01,000.00,030.3,029.7,000.0,038.4,032.0,019.6,0000.0,0014.89,0004.12,0002.77
2024-06-07 08:30:00,SystemResetWarning,0828.4,4.99,000.00,030.3,029.8,000.0,038.5,032.1,019.5,0000.0,0013.75,0004.08,0002.74
2024-06-07 08:31:00,SystemResetWarning,0828.4,5.00,000.00,030.4,029.8,000.0,038.5,032.1,019.6,0000.0,0014.63,0004.08,0002.74
2024-06-07 08:32:00,SystemResetWarning,0828.4,5.00,000.00,030.4,029.8,000.0,038.5,032.1,019.5,0000.0,0015.37,0004.06,0002.71
2024-06-07 08:33:00,SystemResetWarning,0828.4,5.00,000.00,030.4,029.9,000.0,038.5,032.1,019.5,0000.0,0016.34,0004.05,0002.69
2024-06-07 08:34:00,SystemResetWarning,0828.4,5.00,000.00,030.5,029.9,000.0,038.6,032.2,019.5,0000.0,0017.37,0004.07,0002.68
2024-06-07 08:35:00,SystemResetWarning,0828.4,5.00,000.00,030.5,029.9,000.0,038.6,032.2,019.5,0000.0,0017.04,0004.08,0002.67
2024-06-07 08:36:00,SystemResetWarning,0828.4,5.01,000.00,030.5,030.0,000.0,038.6,032.2,019.5,0000.0,0017.21,0004.10,0002.65
2024-06-07 08:37:00,SystemResetWarning,0828.3,5.00,000.00,030.5,030.0,000.0,038.6,032.3,019.4,0000.0,0017.71,0004.15,0002.65
2024-06-07 08:38:00,SystemResetWarning,0828.3,5.00,000.00,030.6,030.0,000.0,038.7,032.3,019.4,0000.0,0018.67,0004.20,0002.65
2024-06-07 08:39:00,SystemResetWarning,0828.3,5.00,000.00,030.6,030.0,000.0,038.7,032.3,019.4,0000.0,0018.37,0004.26,0002.69
2024-06-07 08:40:00,SystemResetWarning,0828.4,4.99,000.00,030.6,030.0,000.0,038.7,032.3,019.4,0000.0,0018.98,0004.32,0002.73
2024-06-07 08:41:00,SystemResetWarning,0828.3,5.00,000.00,030.6,030.1,000.0,038.7,032.4,019.4,0000.0,0019.06,0004.35,0002.77
2024-06-07 08:42:00,SystemResetWarning,0828.4,4.99,000.00,030.7,030.1,000.0,038.8,032.4,019.2,0000.0,0018.00,0004.35,0002.79
2024-06-07 08:43:00,SystemResetWarning,0828.3,5.00,000.00,030.7,030.1,000.0,038.8,032.4,019.2,0000.0,0017.48,0004.36,0002.79
2024-06-07 08:44:00,SystemResetWarning,0828.4,5.00,000.00,030.7,030.1,000.0,038.8,032.4,019.1,0000.0,0016.79,0004.36,0002.77
2024-06-07 08:45:00,SystemResetWarning,0828.3,4.99,000.00,030.7,030.1,000.0,038.8,032.4,019.1,0000.0,0015.15,0004.33,0002.75
2024-06-07 08:46:00,SystemResetWarning,0828.3,5.00,000.00,030.8,030.2,000.0,038.9,032.4,019.1,0000.0,0015.02,0004.30,0002.73
2024-06-07 08:47:00,SystemResetWarning,0828.3,5.00,000.00,030.8,030.2,000.0,038.9,032.5,019.1,0000.0,0014.70,0004.27,0002.70
2024-06-07 08:48:00,SystemResetWarning,0828.3,5.00,000.00,030.8,030.2,000.0,038.9,032.5,019.1,0000.0,0014.43,0004.20,0002.64
2024-06-07 08:49:00,SystemResetWarning,0828.2,5.00,000.00,030.8,030.2,000.0,038.9,032.5,019.0,0000.0,0013.20,0004.16,0002.62
2024-06-07 08:50:00,SystemResetWarning,0828.2,5.00,000.00,030.8,030.2,000.0,039.0,032.5,019.0,0000.0,0012.81,0004.10,0002.57
2024-06-07 08:51:00,SystemResetWarning,0828.2,5.00,000.00,030.8,030.2,000.0,039.0,032.5,019.0,0000.0,0013.41,0004.07,0002.53
2024-06-07 08:52:00,SystemResetWarning,0828.2,5.00,000.00,030.9,030.2,000.0,039.0,032.5,018.9,0000.0,0013.95,0004.03,0002.49
2024-06-07 08:53:00,SystemResetWarning,0828.2,4.99,000.00,030.9,029.9,000.0,039.1,032.3,018.7,0000.0,0014.61,0003.97,0002.44
2024-06-07 08:54:00,SystemResetWarning,0828.1,5.00,000.00,030.5,027.3,000.0,039.1,031.1,019.1,0000.0,0014.35,0003.94,0002.41
2024-06-07 08:55:00,SystemResetWarning,0828.1,5.01,000.00,030.1,026.3,000.0,039.1,030.5,019.5,0000.0,0014.75,0003.96,0002.39
2024-06-07 08:56:00,SystemResetWarning,0828.0,5.01,000.00,029.9,026.6,000.0,038.9,030.6,019.7,0000.0,0015.31,0003.96,0002.37
2024-06-07 08:57:00,SystemResetWarning,0828.1,5.00,000.00,029.8,027.0,000.0,038.8,030.8,019.8,0000.0,0016.07,0003.97,0002.36
2024-06-07 08:58:00,SystemResetWarning,0828.1,5.00,000.00,029.8,027.5,000.0,038.6,031.1,019.7,0000.0,0016.12,0003.96,0002.33
2024-06-07 08:59:00,SystemResetWarning,0828.1,4.99,000.00,029.8,027.8,000.0,038.6,031.2,019.7,0000.0,0016.17,0003.97,0002.33
